Time,TemperatureF,DewpointF,PressureIn,WindDirection,WindDirectionDegrees,WindSpeedMPH,WindSpeedGustMPH,Humidity,HourlyPrecipIn,Conditions,Clouds,dailyrainin,SoftwareType,DateUTC
2013-04-14 01:00:00,55.6,37.9,30.06,ENE,60,0.0,0.0,51,0.00,,,0.00,Meteorologica,2013-04-14 05:00:00,
2013-04-14 01:01:00,54.8,54.8,29.96,NE,50,0.0,0.0,100,0.00,,,0.07,Meteorologica,2013-04-14 05:01:00,
2013-04-14 01:02:00,54.8,54.8,29.96,NE,50,0.0,0.0,100,0.00,,,0.07,Meteorologica,2013-04-14 05:02:00,
2013-04-14 01:03:00,54.8,54.8,29.96,NE,50,0.0,0.0,100,0.00,,,0.07,Meteorologica,2013-04-14 05:03:00,
2013-04-14 01:04:00,54.8,54.8,29.96,NE,50,0.0,0.0,100,0.00,,,0.07,Meteorologica,2013-04-14 05:04:00,
2013-04-14 01:05:00,55.6,37.7,30.06,ENE,60,0.0,0.0,50,0.00,,,0.00,Meteorologica,2013-04-14 05:05:00,
2013-04-14 01:06:00,54.7,54.7,29.96,NE,50,0.0,0.0,100,0.00,,,0.07,Meteorologica,2013-04-14 05:06:00,
2013-04-14 01:07:00,54.8,54.8,29.96,NE,50,0.0,0.0,100,0.00,,,0.07,Meteorologica,2013-04-14 05:07:00,
2013-04-14 01:08:00,54.8,54.8,29.96,NE,50,0.0,0.0,100,0.00,,,0.07,Meteorologica,2013-04-14 05:08:00,
2013-04-14 01:09:00,54.8,54.8,29.96,NE,50,0.0,0.0,100,0.00,,,0.07,Meteorologica,2013-04-14 05:09:00,
2013-04-14 01:10:00,55.7,37.8,30.05,ENE,60,0.0,0.0,50,0.00,,,0.00,Meteorologica,2013-04-14 05:10:00,
2013-04-14 01:11:00,54.8,54.8,29.96,NE,50,0.0,0.0,100,0.00,,,0.07,Meteorologica,2013-04-14 05:11:00,
2013-04-14 01:12:00,54.7,54.7,29.96,NE,50,0.0,0.0,100,0.00,,,0.07,Meteorologica,2013-04-14 05:12:00,
2013-04-14 01:13:00,54.7,54.7,29.96,NE,50,0.0,0.0,100,0.00,,,0.07,Meteorologica,2013-04-14 05:13:00,
2013-04-14 01:14:00,54.7,54.7,29.96,NE,50,0.0,0.0,100,0.00,,,0.07,Meteorologica,2013-04-14 05:14:00,
2013-04-14 01:15:00,55.7,38.2,30.05,ENE,60,0.0,0.0,51,0.00,,,0.00,Meteorologica,2013-04-14 05:15:00,
2013-04-14 01:16:00,54.8,54.8,29.96,NE,50,0.0,0.0,100,0.00,,,0.07,Meteorologica,2013-04-14 05:16:00,
2013-04-14 01:17:00,54.9,54.9,29.96,NE,50,0.0,0.0,100,0.00,,,0.07,Meteorologica,2013-04-14 05:17:00,
2013-04-14 01:18:00,54.9,54.9,29.96,NE,50,0.0,0.0,100,0.00,,,0.07,Meteorologica,2013-04-14 05:18:00,
2013-04-14 01:19:00,54.7,54.7,29.96,NE,50,0.0,0.0,100,0.00,,,0.07,Meteorologica,2013-04-14 05:19:00,
2013-04-14 01:20:00,55.6,38.4,30.05,ENE,60,0.0,0.0,52,0.00,,,0.00,Meteorologica,2013-04-14 05:20:00,
2013-04-14 01:21:00,54.8,54.8,29.96,NE,50,0.0,0.0,100,0.00,,,0.07,Meteorologica,2013-04-14 05:21:00,
2013-04-14 01:22:00,54.8,54.8,29.96,NE,50,0.0,0.0,100,0.00,,,0.07,Meteorologica,2013-04-14 05:22:00,
2013-04-14 01:23:00,54.7,54.7,29.96,NE,50,0.0,0.0,100,0.00,,,0.07,Meteorologica,2013-04-14 05:23:00,
2013-04-14 01:24:00,54.8,54.8,29.96,NE,50,0.0,0.0,100,0.00,,,0.07,Meteorologica,2013-04-14 05:24:00,
2013-04-14 01:25:00,54.9,54.9,29.96,NE,50,0.0,0.0,100,0.00,,,0.07,Meteorologica,2013-04-14 05:25:00,
2013-04-14 01:26:00,55.5,38.7,30.05,ENE,60,0.0,0.0,53,0.00,,,0.00,Meteorologica,2013-04-14 05:26:00,
2013-04-14 01:27:00,54.8,54.8,29.96,NE,50,0.0,0.0,100,0.00,,,0.07,Meteorologica,2013-04-14 05:27:00,
2013-04-14 01:28:00,54.8,54.8,29.95,NE,50,0.0,0.0,100,0.00,,,0.07,Meteorologica,2013-04-14 05:28:00,
2013-04-14 01:29:00,54.9,54.9,29.96,NE,50,0.0,0.0,100,0.00,,,0.07,Meteorologica,2013-04-14 05:29:00,
2013-04-14 01:30:00,54.8,54.8,29.96,NE,50,0.0,0.0,100,0.00,,,0.07,Meteorologica,2013-04-14 05:30:00,
2013-04-14 01:31:00,55.4,38.4,30.05,ENE,60,0.0,0.0,52,0.00,,,0.00,Meteorologica,2013-04-14 05:31:00,
2013-04-14 01:32:00,54.8,54.8,29.96,NE,50,0.0,0.0,100,0.00,,,0.07,Meteorologica,2013-04-14 05:32:00,
2013-04-14 01:33:00,54.9,54.9,29.96,NE,50,0.0,0.0,100,0.00,,,0.07,Meteorologica,2013-04-14 05:33:00,
2013-04-14 01:34:00,55.0,55.0,29.96,NE,50,0.0,0.0,100,0.00,,,0.07,Meteorologica,2013-04-14 05:34:00,
2013-04-14 01:35:00,54.8,54.8,29.96,NE,50,0.0,0.0,100,0.00,,,0.07,Meteorologica,2013-04-14 05:35:00,
2013-04-14 01:36:00,55.3,38.9,30.05,ENE,60,0.0,0.0,53,0.00,,,0.00,Meteorologica,2013-04-14 05:36:00,
2013-04-14 01:37:00,54.9,54.9,29.96,NE,50,0.0,0.0,100,0.00,,,0.07,Meteorologica,2013-04-14 05:37:00,
2013-04-14 01:38:00,54.8,54.8,29.97,NE,50,0.0,0.0,100,0.00,,,0.07,Meteorologica,2013-04-14 05:38:00,
2013-04-14 01:39:00,54.9,54.9,29.96,NE,50,0.0,0.0,100,0.00,,,0.07,Meteorologica,2013-04-14 05:39:00,
2013-04-14 01:40:00,54.9,54.9,29.97,NE,50,0.0,0.0,100,0.00,,,0.07,Meteorologica,2013-04-14 05:40:00,
2013-04-14 01:41:00,55.2,39.2,30.05,ENE,60,0.0,0.0,54,0.00,,,0.00,Meteorologica,2013-04-14 05:41:00,
2013-04-14 01:42:00,54.9,54.9,29.97,NE,50,0.0,0.0,100,0.00,,,0.07,Meteorologica,2013-04-14 05:42:00,
2013-04-14 01:43:00,54.8,54.8,29.97,NE,50,0.0,0.0,100,0.00,,,0.07,Meteorologica,2013-04-14 05:43:00,
2013-04-14 01:44:00,54.8,54.8,29.97,NE,50,0.0,0.0,100,0.00,,,0.07,Meteorologica,2013-04-14 05:44:00,
2013-04-14 01:45:00,55.0,55.0,29.97,NE,50,0.0,0.0,100,0.00,,,0.07,Meteorologica,2013-04-14 05:45:00,
2013-04-14 01:46:00,55.1,40.0,30.06,ENE,60,0.0,0.0,56,0.00,,,0.00,Meteorologica,2013-04-14 05:46:00,
2013-04-14 01:47:00,54.9,54.9,29.97,NE,50,0.0,0.0,100,0.00,,,0.07,Meteorologica,2013-04-14 05:47:00,
2013-04-14 01:48:00,54.9,54.9,29.97,NE,50,0.0,0.0,100,0.00,,,0.07,Meteorologica,2013-04-14 05:48:00,
2013-04-14 01:49:00,54.9,54.9,29.97,NE,50,0.0,0.0,100,0.00,,,0.07,Meteorologica,2013-04-14 05:49:00,
2013-04-14 01:50:00,54.9,54.9,29.97,NE,50,0.0,0.0,100,0.00,,,0.07,Meteorologica,2013-04-14 05:50:00,
2013-04-14 01:51:00,55.0,55.0,29.97,NE,50,0.0,0.0,100,0.00,,,0.07,Meteorologica,2013-04-14 05:51:00,
2013-04-14 01:52:00,54.8,39.1,30.05,ENE,60,0.0,0.0,55,0.00,,,0.00,Meteorologica,2013-04-14 05:52:00,
2013-04-14 01:53:00,55.0,55.0,29.97,NE,50,0.0,0.0,100,0.00,,,0.07,Meteorologica,2013-04-14 05:53:00,
2013-04-14 01:54:00,54.9,54.9,29.97,NE,50,0.0,0.0,100,0.00,,,0.07,Meteorologica,2013-04-14 05:54:00,
2013-04-14 01:55:00,54.9,54.9,29.97,NE,50,0.0,0.0,100,0.00,,,0.07,Meteorologica,2013-04-14 05:55:00,
2013-04-14 01:56:00,55.0,55.0,29.97,NE,50,0.0,0.0,100,0.00,,,0.07,Meteorologica,2013-04-14 05:56:00,
2013-04-14 01:57:00,54.5,39.1,30.05,ENE,60,0.0,0.0,55,0.00,,,0.00,Meteorologica,2013-04-14 05:57:00,
2013-04-14 01:58:00,54.9,54.9,29.97,NE,50,0.0,0.0,100,0.00,,,0.07,Meteorologica,2013-04-14 05:58:00,
2013-04-14 01:59:00,55.0,55.0,29.97,NE,50,0.0,0.0,100,0.00,,,0.07,Meteorologica,2013-04-14 05:59:00,
2013-04-14 02:02:00,54.4,39.3,30.05,ENE,60,0.0,0.0,56,0.00,,,0.00,Meteorologica,2013-04-14 06:02:00,
2013-04-14 02:07:00,54.1,39.4,30.05,ENE,60,0.0,0.0,57,0.00,,,0.00,Meteorologica,2013-04-14 06:07:00,
2013-04-14 02:12:00,53.8,40.6,30.05,ENE,60,0.0,0.0,60,0.00,,,0.00,Meteorologica,2013-04-14 06:12:00,
2013-04-14 02:17:00,53.6,40.5,30.05,ENE,60,0.0,0.0,60,0.00,,,0.00,Meteorologica,2013-04-14 06:17:00,
2013-04-14 02:22:00,53.5,41.2,30.04,ENE,60,0.0,0.0,62,0.00,,,0.00,Meteorologica,2013-04-14 06:22:00,
2013-04-14 02:27:00,53.3,41.0,30.04,ENE,60,0.0,0.0,62,0.00,,,0.00,Meteorologica,2013-04-14 06:27:00,
2013-04-14 02:32:00,53.0,41.5,30.04,ENE,60,0.0,0.0,64,0.00,,,0.00,Meteorologica,2013-04-14 06:32:00,
2013-04-14 02:38:00,52.9,41.9,30.03,ENE,60,0.0,0.0,66,0.00,,,0.00,Meteorologica,2013-04-14 06:38:00,
2013-04-14 02:43:00,52.7,42.8,30.03,ENE,60,0.0,0.0,68,0.00,,,0.00,Meteorologica,2013-04-14 06:43:00,
2013-04-14 02:48:00,52.2,42.4,30.03,ENE,60,0.0,0.0,68,0.00,,,0.00,Meteorologica,2013-04-14 06:48:00,
2013-04-14 02:53:00,52.0,42.5,30.03,ENE,60,0.0,0.0,69,0.00,,,0.00,Meteorologica,2013-04-14 06:53:00,
2013-04-14 02:58:00,51.8,43.2,30.03,ENE,60,0.0,0.0,72,0.00,,,0.00,Meteorologica,2013-04-14 06:58:00,
2013-04-14 03:03:00,51.6,43.2,30.03,ENE,60,0.0,0.0,72,0.00,,,0.00,Meteorologica,2013-04-14 07:03:00,
2013-04-14 03:08:00,51.4,43.9,30.02,ENE,60,0.0,0.0,75,0.00,,,0.00,Meteorologica,2013-04-14 07:08:00,
2013-04-14 03:13:00,51.1,43.8,30.02,ENE,60,0.0,0.0,76,0.00,,,0.00,Meteorologica,2013-04-14 07:13:00,
2013-04-14 03:18:00,50.9,44.3,30.02,ENE,60,0.0,0.0,77,0.00,,,0.00,Meteorologica,2013-04-14 07:18:00,
2013-04-14 03:23:00,50.6,44.0,30.01,ENE,60,0.0,0.0,78,0.00,,,0.00,Meteorologica,2013-04-14 07:23:00,
2013-04-14 03:29:00,50.5,44.1,30.02,ENE,60,0.0,0.0,78,0.00,,,0.00,Meteorologica,2013-04-14 07:29:00,
2013-04-14 03:34:00,50.3,44.4,30.01,ENE,60,0.0,0.0,80,0.00,,,0.00,Meteorologica,2013-04-14 07:34:00,
2013-04-14 03:39:00,50.2,45.3,30.01,ENE,60,0.0,0.0,83,0.00,,,0.00,Meteorologica,2013-04-14 07:39:00,
2013-04-14 03:44:00,49.9,45.2,30.01,ENE,60,0.0,0.0,83,0.00,,,0.00,Meteorologica,2013-04-14 07:44:00,
2013-04-14 03:49:00,49.7,45.5,30.01,ENE,60,0.0,0.0,85,0.00,,,0.00,Meteorologica,2013-04-14 07:49:00,
2013-04-14 03:54:00,49.5,45.3,30.00,ENE,60,0.0,0.0,85,0.00,,,0.00,Meteorologica,2013-04-14 07:54:00,
2013-04-14 03:59:00,49.3,45.5,30.01,ENE,60,0.0,0.0,86,0.00,,,0.00,Meteorologica,2013-04-14 07:59:00,
2013-04-14 04:05:00,49.3,45.4,30.00,ENE,60,0.0,0.0,86,0.00,,,0.00,Meteorologica,2013-04-14 08:05:00,
2013-04-14 04:10:00,49.2,45.2,30.01,ENE,60,0.0,0.0,86,0.00,,,0.00,Meteorologica,2013-04-14 08:10:00,
2013-04-14 04:15:00,49.2,45.2,30.01,ENE,60,0.0,0.0,86,0.00,,,0.00,Meteorologica,2013-04-14 08:15:00,
2013-04-14 04:20:00,49.2,45.2,30.01,ENE,60,0.0,0.0,86,0.00,,,0.00,Meteorologica,2013-04-14 08:20:00,
2013-04-14 04:25:00,49.1,44.9,30.01,ENE,60,0.0,0.0,85,0.00,,,0.00,Meteorologica,2013-04-14 08:25:00,
2013-04-14 04:30:00,49.0,44.8,30.01,ENE,60,0.0,0.0,85,0.00,,,0.00,Meteorologica,2013-04-14 08:30:00,
2013-04-14 04:35:00,49.0,44.6,30.01,ENE,60,0.0,0.0,84,0.00,,,0.00,Meteorologica,2013-04-14 08:35:00,
2013-04-14 04:40:00,49.0,44.0,30.01,ENE,60,0.0,0.0,82,0.00,,,0.00,Meteorologica,2013-04-14 08:40:00,
2013-04-14 04:45:00,48.9,43.6,30.01,ENE,60,0.0,0.0,81,0.00,,,0.00,Meteorologica,2013-04-14 08:45:00,
2013-04-14 04:50:00,49.0,43.5,30.01,ENE,60,0.0,0.0,81,0.00,,,0.00,Meteorologica,2013-04-14 08:50:00,
2013-04-14 04:56:00,49.0,44.0,30.01,ENE,60,0.0,0.0,82,0.00,,,0.00,Meteorologica,2013-04-14 08:56:00,
2013-04-14 05:01:00,49.1,44.1,30.01,ENE,60,0.0,0.0,82,0.00,,,0.00,Meteorologica,2013-04-14 09:01:00,
2013-04-14 05:06:00,49.1,44.2,30.01,ENE,60,0.0,0.0,83,0.00,,,0.00,Meteorologica,2013-04-14 09:06:00,
2013-04-14 05:11:00,49.2,45.0,30.01,ENE,60,0.0,0.0,85,0.00,,,0.00,Meteorologica,2013-04-14 09:11:00,
2013-04-14 05:17:00,49.1,45.2,30.01,ENE,60,0.0,0.0,86,0.00,,,0.00,Meteorologica,2013-04-14 09:17:00,
2013-04-14 05:22:00,48.9,45.5,30.01,ENE,60,0.0,0.0,88,0.00,,,0.00,Meteorologica,2013-04-14 09:22:00,
2013-04-14 05:27:00,48.6,45.6,30.01,ENE,60,0.0,0.0,89,0.00,,,0.00,Meteorologica,2013-04-14 09:27:00,
2013-04-14 05:32:00,48.5,46.0,30.01,ENE,60,0.0,0.0,91,0.00,,,0.00,Meteorologica,2013-04-14 09:32:00,
2013-04-14 05:37:00,48.5,46.2,30.01,ENE,60,0.0,0.0,91,0.00,,,0.00,Meteorologica,2013-04-14 09:37:00,
2013-04-14 05:42:00,48.2,45.8,30.00,ENE,60,0.0,0.0,91,0.00,,,0.00,Meteorologica,2013-04-14 09:42:00,
2013-04-14 05:48:00,48.2,46.1,30.00,ENE,60,0.0,0.0,92,0.00,,,0.00,Meteorologica,2013-04-14 09:48:00,
2013-04-14 05:53:00,48.2,45.8,30.01,ENE,60,0.0,0.0,91,0.00,,,0.00,Meteorologica,2013-04-14 09:53:00,
2013-04-14 05:58:00,48.2,45.6,30.01,ENE,60,0.0,0.0,90,0.00,,,0.00,Meteorologica,2013-04-14 09:58:00,
2013-04-14 06:03:00,48.1,45.5,30.01,ENE,60,0.0,0.0,90,0.00,,,0.00,Meteorologica,2013-04-14 10:03:00,
2013-04-14 06:08:00,48.3,45.5,30.01,ENE,60,0.0,0.0,90,0.00,,,0.00,Meteorologica,2013-04-14 10:08:00,
2013-04-14 06:14:00,48.4,45.5,30.02,ENE,60,0.0,0.0,89,0.00,,,0.00,Meteorologica,2013-04-14 10:14:00,
2013-04-14 06:19:00,48.6,45.8,30.02,ENE,60,0.0,0.0,90,0.00,,,0.00,Meteorologica,2013-04-14 10:19:00,
2013-04-14 06:24:00,48.6,45.9,30.02,ENE,60,0.0,0.0,90,0.00,,,0.00,Meteorologica,2013-04-14 10:24:00,
2013-04-14 06:29:00,48.6,45.8,30.03,ENE,60,0.0,0.0,90,0.00,,,0.00,Meteorologica,2013-04-14 10:29:00,
2013-04-14 06:34:00,48.6,45.9,30.03,ENE,60,0.0,0.0,90,0.00,,,0.00,Meteorologica,2013-04-14 10:34:00,
2013-04-14 06:39:00,48.9,46.2,30.03,ENE,60,0.0,0.0,90,0.00,,,0.00,Meteorologica,2013-04-14 10:39:00,
2013-04-14 06:44:00,48.7,46.1,30.04,ENE,60,0.0,0.0,90,0.00,,,0.00,Meteorologica,2013-04-14 10:44:00,
2013-04-14 06:49:00,48.7,46.4,30.04,ENE,60,0.0,0.0,91,0.00,,,0.00,Meteorologica,2013-04-14 10:49:00,
2013-04-14 06:54:00,48.8,46.5,30.04,ENE,60,0.0,0.0,91,0.00,,,0.00,Meteorologica,2013-04-14 10:54:00,
2013-04-14 06:59:00,48.8,47.1,30.03,ENE,60,0.0,0.0,94,0.00,,,0.00,Meteorologica,2013-04-14 10:59:00,
2013-04-14 07:04:00,48.5,47.5,30.03,ENE,60,0.0,0.0,96,0.00,,,0.00,Meteorologica,2013-04-14 11:04:00,
2013-04-14 07:10:00,48.4,47.6,30.04,ENE,60,0.0,0.0,97,0.00,,,0.00,Meteorologica,2013-04-14 11:10:00,
2013-04-14 07:15:00,48.4,47.8,30.03,ENE,60,0.0,0.0,98,0.00,,,0.00,Meteorologica,2013-04-14 11:15:00,
2013-04-14 07:20:00,48.0,48.0,30.03,ENE,60,0.0,0.0,100,0.00,,,0.00,Meteorologica,2013-04-14 11:20:00,
2013-04-14 07:25:00,48.0,48.0,30.03,ENE,60,0.0,0.0,100,0.00,,,0.00,Meteorologica,2013-04-14 11:25:00,
2013-04-14 07:30:00,47.9,47.9,30.03,ENE,60,0.0,0.0,100,0.00,,,0.00,Meteorologica,2013-04-14 11:30:00,
2013-04-14 07:35:00,48.0,48.0,30.03,ENE,60,0.0,0.0,100,0.00,,,0.00,Meteorologica,2013-04-14 11:35:00,
2013-04-14 07:40:00,48.2,48.2,30.03,ENE,60,0.0,0.0,100,0.00,,,0.00,Meteorologica,2013-04-14 11:40:00,
2013-04-14 07:46:00,48.4,48.4,30.03,ENE,60,0.0,0.0,100,0.00,,,0.00,Meteorologica,2013-04-14 11:46:00,
2013-04-14 07:51:00,48.7,48.5,30.03,ENE,60,0.0,0.0,99,0.00,,,0.00,Meteorologica,2013-04-14 11:51:00,
2013-04-14 07:56:00,48.8,48.4,30.03,ENE,60,0.0,0.0,98,0.00,,,0.00,Meteorologica,2013-04-14 11:56:00,
2013-04-14 08:01:00,49.0,48.6,30.03,ENE,60,0.0,0.0,98,0.00,,,0.00,Meteorologica,2013-04-14 12:01:00,
2013-04-14 08:06:00,49.4,49.3,30.03,ENE,60,0.0,0.0,99,0.00,,,0.00,Meteorologica,2013-04-14 12:06:00,
2013-04-14 08:11:00,49.4,49.3,30.03,ENE,60,0.0,0.0,99,0.00,,,0.00,Meteorologica,2013-04-14 12:11:00,
2013-04-14 08:17:00,49.7,49.5,30.03,ENE,60,0.0,0.0,99,0.00,,,0.00,Meteorologica,2013-04-14 12:17:00,
2013-04-14 08:22:00,49.9,49.1,30.03,ENE,60,0.0,0.0,97,0.00,,,0.00,Meteorologica,2013-04-14 12:22:00,
2013-04-14 08:27:00,50.2,48.2,30.03,ENE,60,0.0,0.0,93,0.00,,,0.00,Meteorologica,2013-04-14 12:27:00,
2013-04-14 08:32:00,50.5,47.6,30.03,ENE,60,0.0,0.0,89,0.00,,,0.00,Meteorologica,2013-04-14 12:32:00,
2013-04-14 08:37:00,50.8,47.3,30.03,ENE,60,0.0,0.0,87,0.00,,,0.00,Meteorologica,2013-04-14 12:37:00,
2013-04-14 08:42:00,51.2,47.2,30.03,ENE,60,0.0,0.0,86,0.00,,,0.00,Meteorologica,2013-04-14 12:42:00,
2013-04-14 08:47:00,51.3,46.6,30.03,ENE,60,0.0,0.0,84,0.00,,,0.00,Meteorologica,2013-04-14 12:47:00,
2013-04-14 08:53:00,51.5,46.7,30.03,ENE,60,0.0,0.0,83,0.00,,,0.00,Meteorologica,2013-04-14 12:53:00,
2013-04-14 08:58:00,51.8,46.9,30.03,ENE,60,0.0,0.0,83,0.00,,,0.00,Meteorologica,2013-04-14 12:58:00,
2013-04-14 09:03:00,52.0,46.7,30.03,ENE,60,0.0,0.0,81,0.00,,,0.00,Meteorologica,2013-04-14 13:03:00,
2013-04-14 09:08:00,52.3,46.1,30.03,ENE,60,0.0,0.0,79,0.00,,,0.00,Meteorologica,2013-04-14 13:08:00,
2013-04-14 09:13:00,52.5,45.8,30.03,ENE,60,0.0,0.0,77,0.00,,,0.00,Meteorologica,2013-04-14 13:13:00,
2013-04-14 09:18:00,52.9,44.8,30.02,ENE,60,0.0,0.0,73,0.00,,,0.00,Meteorologica,2013-04-14 13:18:00,
2013-04-14 09:23:00,53.4,44.7,30.03,ENE,60,0.0,0.0,71,0.00,,,0.00,Meteorologica,2013-04-14 13:23:00,
2013-04-14 09:28:00,53.6,44.2,30.03,ENE,60,0.0,0.0,70,0.00,,,0.00,Meteorologica,2013-04-14 13:28:00,
2013-04-14 09:33:00,53.9,43.9,30.03,ENE,66,1.6,3.4,68,0.00,,,0.00,Meteorologica,2013-04-14 13:33:00,
2013-04-14 09:39:00,54.3,43.9,30.03,NE,50,0.0,4.0,68,0.00,,,0.00,Meteorologica,2013-04-14 13:39:00,
2013-04-14 09:44:00,54.6,43.9,30.03,ENE,67,1.7,1.7,66,0.00,,,0.00,Meteorologica,2013-04-14 13:44:00,
2013-04-14 09:49:00,54.9,44.1,30.03,ENE,69,0.3,4.2,66,0.00,,,0.00,Meteorologica,2013-04-14 13:49:00,
2013-04-14 09:54:00,55.2,44.4,30.03,NE,52,0.0,3.3,66,0.00,,,0.00,Meteorologica,2013-04-14 13:54:00,
2013-04-14 09:59:00,55.5,44.3,30.03,NE,52,0.0,0.0,65,0.00,,,0.00,Meteorologica,2013-04-14 13:59:00,
2013-04-14 10:04:00,55.8,44.5,30.03,ENE,66,0.2,0.0,65,0.00,,,0.00,Meteorologica,2013-04-14 14:04:00,
2013-04-14 10:09:00,56.0,44.7,30.02,ENE,66,1.1,3.0,65,0.00,,,0.00,Meteorologica,2013-04-14 14:09:00,
2013-04-14 10:14:00,56.3,45.0,30.02,NE,56,0.7,2.4,65,0.00,,,0.00,Meteorologica,2013-04-14 14:14:00,
2013-04-14 10:19:00,56.6,44.4,30.01,ENE,64,0.4,2.1,63,0.00,,,0.00,Meteorologica,2013-04-14 14:19:00,
2013-04-14 10:24:00,56.7,44.6,30.02,ENE,64,0.0,3.3,63,0.00,,,0.00,Meteorologica,2013-04-14 14:24:00,
2013-04-14 10:29:00,57.0,44.5,30.02,ENE,64,0.0,0.0,62,0.00,,,0.00,Meteorologica,2013-04-14 14:29:00,
2013-04-14 10:34:00,57.2,44.9,30.02,ENE,64,0.0,0.0,63,0.00,,,0.00,Meteorologica,2013-04-14 14:34:00,
2013-04-14 10:39:00,57.4,44.2,30.02,ENE,64,0.0,0.0,61,0.00,,,0.00,Meteorologica,2013-04-14 14:39:00,
2013-04-14 10:44:00,57.6,44.8,30.01,ENE,64,0.0,0.0,61,0.00,,,0.00,Meteorologica,2013-04-14 14:44:00,
2013-04-14 10:49:00,57.8,45.0,30.01,ENE,64,0.0,0.0,61,0.00,,,0.00,Meteorologica,2013-04-14 14:49:00,
2013-04-14 10:54:00,57.9,44.7,30.01,ENE,64,0.0,0.0,61,0.00,,,0.00,Meteorologica,2013-04-14 14:54:00,
2013-04-14 10:59:00,58.0,45.3,30.01,ENE,64,0.0,0.0,62,0.00,,,0.00,Meteorologica,2013-04-14 14:59:00,
2013-04-14 11:05:00,58.2,45.1,30.02,ENE,64,0.0,0.0,61,0.00,,,0.00,Meteorologica,2013-04-14 15:05:00,
2013-04-14 11:10:00,58.3,45.1,30.03,ENE,64,0.0,0.0,61,0.00,,,0.00,Meteorologica,2013-04-14 15:10:00,
2013-04-14 11:15:00,58.8,46.3,30.03,ENE,57,0.5,4.1,62,0.00,,,0.00,Meteorologica,2013-04-14 15:15:00,
2013-04-14 11:20:00,58.8,46.3,30.03,ENE,57,0.0,0.0,62,0.00,,,0.00,Meteorologica,2013-04-14 15:20:00,
2013-04-14 11:25:00,59.1,46.8,30.03,ENE,57,0.0,0.0,63,0.00,,,0.00,Meteorologica,2013-04-14 15:25:00,
2013-04-14 11:30:00,59.4,46.6,30.03,ESE,115,0.9,3.3,62,0.00,,,0.00,Meteorologica,2013-04-14 15:30:00,
2013-04-14 11:35:00,59.5,46.7,30.03,SSE,160,1.3,2.4,62,0.00,,,0.00,Meteorologica,2013-04-14 15:35:00,
2013-04-14 11:40:00,59.8,46.8,30.04,SSW,193,0.3,2.8,61,0.00,,,0.00,Meteorologica,2013-04-14 15:40:00,
2013-04-14 11:45:00,60.0,46.9,30.04,WSW,239,0.6,4.7,61,0.00,,,0.00,Meteorologica,2013-04-14 15:45:00,
2013-04-14 11:50:00,60.2,46.4,30.04,West,272,2.5,4.3,60,0.00,,,0.00,Meteorologica,2013-04-14 15:50:00,
2013-04-14 11:55:00,60.2,46.5,30.04,SE,132,1.9,5.0,60,0.00,,,0.00,Meteorologica,2013-04-14 15:55:00,
2013-04-14 12:00:00,60.2,46.5,30.04,South,173,0.1,3.7,60,0.00,,,0.00,Meteorologica,2013-04-14 16:00:00,
2013-04-14 12:05:00,60.5,46.9,30.03,South,172,1.9,3.7,60,0.00,,,0.00,Meteorologica,2013-04-14 16:05:00,
2013-04-14 12:10:00,60.6,46.6,30.03,South,183,1.6,4.1,59,0.00,,,0.00,Meteorologica,2013-04-14 16:10:00,
2013-04-14 12:15:00,60.7,46.2,30.03,WSW,240,1.5,4.0,58,0.00,,,0.00,Meteorologica,2013-04-14 16:15:00,
2013-04-14 12:20:00,61.0,45.8,30.03,WNW,292,0.0,3.6,57,0.00,,,0.00,Meteorologica,2013-04-14 16:20:00,
2013-04-14 12:25:00,61.4,45.7,30.03,WSW,238,0.1,1.6,56,0.00,,,0.00,Meteorologica,2013-04-14 16:25:00,
2013-04-14 12:30:00,61.7,45.7,30.03,WNW,300,1.3,4.3,55,0.00,,,0.00,Meteorologica,2013-04-14 16:30:00,
2013-04-14 12:35:00,61.9,45.8,30.03,SSW,200,0.5,5.8,55,0.00,,,0.00,Meteorologica,2013-04-14 16:35:00,
2013-04-14 12:40:00,62.1,45.9,30.02,South,172,1.0,4.9,55,0.00,,,0.00,Meteorologica,2013-04-14 16:40:00,
2013-04-14 12:45:00,62.2,45.6,30.02,West,262,0.8,2.8,54,0.00,,,0.00,Meteorologica,2013-04-14 16:45:00,
2013-04-14 12:50:00,62.4,46.9,30.01,West,262,0.0,0.6,56,0.00,,,0.00,Meteorologica,2013-04-14 16:50:00,
2013-04-14 12:55:00,62.4,46.3,30.01,SW,230,0.0,2.1,55,0.00,,,0.00,Meteorologica,2013-04-14 16:55:00,
2013-04-14 13:00:00,62.5,45.8,30.01,SW,230,0.0,0.0,54,0.00,,,0.00,Meteorologica,2013-04-14 17:00:00,
2013-04-14 13:05:00,62.5,45.5,30.01,SW,230,0.0,0.0,53,0.00,,,0.00,Meteorologica,2013-04-14 17:05:00,
2013-04-14 13:10:00,62.7,46.1,30.01,SW,230,0.0,0.0,54,0.00,,,0.00,Meteorologica,2013-04-14 17:10:00,
2013-04-14 13:16:00,62.7,46.3,30.01,SW,230,0.0,0.0,54,0.00,,,0.00,Meteorologica,2013-04-14 17:16:00,
2013-04-14 13:21:00,62.6,46.1,30.01,SW,230,0.0,0.0,54,0.00,,,0.00,Meteorologica,2013-04-14 17:21:00,
2013-04-14 13:26:00,62.5,46.4,30.01,ENE,59,0.1,0.9,55,0.00,,,0.00,Meteorologica,2013-04-14 17:26:00,
2013-04-14 13:31:00,62.5,47.5,30.01,ENE,59,0.0,0.6,57,0.00,,,0.00,Meteorologica,2013-04-14 17:31:00,
2013-04-14 13:36:00,62.3,47.7,30.01,NNE,32,0.0,7.4,58,0.00,,,0.00,Meteorologica,2013-04-14 17:36:00,
2013-04-14 13:41:00,62.3,47.6,30.01,SE,125,0.0,1.9,58,0.00,,,0.00,Meteorologica,2013-04-14 17:41:00,
2013-04-14 13:46:00,62.4,45.1,30.01,SSW,194,3.1,7.8,53,0.00,,,0.00,Meteorologica,2013-04-14 17:46:00,
2013-04-14 13:52:00,62.6,44.9,30.01,SW,214,3.4,6.8,52,0.00,,,0.00,Meteorologica,2013-04-14 17:52:00,
2013-04-14 13:57:00,62.9,45.4,30.01,SSW,206,4.0,6.1,52,0.00,,,0.00,Meteorologica,2013-04-14 17:57:00,
2013-04-14 14:02:00,63.2,45.1,30.01,SW,214,4.3,14.1,51,0.00,,,0.00,Meteorologica,2013-04-14 18:02:00,
2013-04-14 14:07:00,63.4,45.4,30.01,SW,214,2.9,8.6,51,0.00,,,0.00,Meteorologica,2013-04-14 18:07:00,
2013-04-14 14:12:00,63.4,45.4,30.01,SSW,204,3.3,10.1,51,0.00,,,0.00,Meteorologica,2013-04-14 18:12:00,
2013-04-14 14:17:00,63.7,44.6,30.02,SSE,150,3.8,10.7,49,0.00,,,0.00,Meteorologica,2013-04-14 18:17:00,
2013-04-14 14:22:00,63.8,44.4,30.02,SSW,192,5.8,15.3,49,0.00,,,0.00,Meteorologica,2013-04-14 18:22:00,
2013-04-14 14:27:00,64.0,44.3,30.02,SE,145,2.5,12.0,48,0.00,,,0.00,Meteorologica,2013-04-14 18:27:00,
2013-04-14 14:32:00,64.1,44.8,30.02,SW,234,3.9,10.8,49,0.00,,,0.00,Meteorologica,2013-04-14 18:32:00,
2013-04-14 14:37:00,64.0,45.4,30.02,SW,217,4.9,10.8,50,0.00,,,0.00,Meteorologica,2013-04-14 18:37:00,
2013-04-14 14:42:00,63.9,45.7,30.03,SW,214,2.5,8.6,51,0.00,,,0.00,Meteorologica,2013-04-14 18:42:00,
2013-04-14 14:47:00,63.7,46.4,30.03,South,189,4.6,9.7,53,0.00,,,0.00,Meteorologica,2013-04-14 18:47:00,
2013-04-14 14:53:00,63.6,46.6,30.03,SSW,207,8.0,9.6,53,0.00,,,0.00,Meteorologica,2013-04-14 18:53:00,
2013-04-14 14:58:00,63.4,47.2,30.03,South,177,8.6,13.0,55,0.00,,,0.00,Meteorologica,2013-04-14 18:58:00,
2013-04-14 15:03:00,62.9,47.7,30.03,SW,215,9.1,13.1,58,0.00,,,0.00,Meteorologica,2013-04-14 19:03:00,
2013-04-14 15:07:00,62.3,48.5,30.03,South,170,7.5,14.1,60,0.00,,,0.00,Meteorologica,2013-04-14 19:07:00,
2013-04-14 15:13:00,61.7,49.2,30.03,SSE,168,4.6,14.2,63,0.00,,,0.00,Meteorologica,2013-04-14 19:13:00,
2013-04-14 15:18:00,61.1,49.8,30.03,SW,221,7.0,13.1,66,0.00,,,0.00,Meteorologica,2013-04-14 19:18:00,
2013-04-14 15:23:00,60.5,50.4,30.03,SSE,162,2.5,12.6,69,0.00,,,0.00,Meteorologica,2013-04-14 19:23:00,
2013-04-14 15:28:00,60.2,51.5,30.03,South,176,3.8,7.3,72,0.00,,,0.00,Meteorologica,2013-04-14 19:28:00,
2013-04-14 15:33:00,59.8,51.9,30.03,SSW,204,5.6,9.2,74,0.00,,,0.00,Meteorologica,2013-04-14 19:33:00,
2013-04-14 15:38:00,59.5,52.7,30.03,SSW,203,1.3,8.4,77,0.01,,,0.01,Meteorologica,2013-04-14 19:38:00,
2013-04-14 15:43:00,59.5,53.6,30.02,SSW,206,2.5,9.0,80,0.01,,,0.01,Meteorologica,2013-04-14 19:43:00,
2013-04-14 15:48:00,59.2,53.8,30.02,SSE,162,3.5,7.9,82,0.01,,,0.01,Meteorologica,2013-04-14 19:48:00,
2013-04-14 15:53:00,58.9,54.6,30.02,WSW,239,0.0,6.0,85,0.01,,,0.01,Meteorologica,2013-04-14 19:53:00,
2013-04-14 15:58:00,58.9,55.5,30.02,SSW,197,2.8,7.0,88,0.02,,,0.02,Meteorologica,2013-04-14 19:58:00,
2013-04-14 16:03:00,58.7,56.8,30.01,SSW,213,2.6,5.8,93,0.02,,,0.02,Meteorologica,2013-04-14 20:03:00,
2013-04-14 16:08:00,58.4,57.4,30.01,SW,225,0.7,6.2,96,0.02,,,0.02,Meteorologica,2013-04-14 20:08:00,
2013-04-14 16:13:00,58.3,58.3,30.00,SW,227,0.0,4.3,100,0.03,,,0.03,Meteorologica,2013-04-14 20:13:00,
2013-04-14 16:18:00,58.1,58.1,30.00,SW,227,0.0,1.5,100,0.03,,,0.03,Meteorologica,2013-04-14 20:18:00,
2013-04-14 16:23:00,58.0,58.0,29.99,East,101,2.4,0.0,100,0.03,,,0.03,Meteorologica,2013-04-14 20:23:00,
2013-04-14 16:28:00,57.7,57.7,29.99,SE,127,2.1,5.5,100,0.03,,,0.03,Meteorologica,2013-04-14 20:28:00,
2013-04-14 16:33:00,57.7,57.7,29.98,ENE,71,2.5,7.4,100,0.02,,,0.03,Meteorologica,2013-04-14 20:33:00,
2013-04-14 16:38:00,57.5,57.5,29.98,SE,124,0.7,5.4,100,0.02,,,0.03,Meteorologica,2013-04-14 20:38:00,
2013-04-14 16:43:00,57.5,57.5,29.98,SE,141,0.6,2.7,100,0.02,,,0.03,Meteorologica,2013-04-14 20:43:00,
2013-04-14 16:49:00,57.5,57.5,29.98,East,88,0.0,1.5,100,0.02,,,0.03,Meteorologica,2013-04-14 20:49:00,
2013-04-14 17:00:00,57.2,57.2,29.97,NNE,21,0.7,2.9,100,0.02,,,0.04,Meteorologica,2013-04-14 21:00:00,
2013-04-14 17:05:00,57.2,57.2,29.97,NNE,21,0.0,0.0,100,0.02,,,0.04,Meteorologica,2013-04-14 21:05:00,
2013-04-14 17:10:00,57.2,57.2,29.96,NNE,14,0.1,2.7,100,0.01,,,0.04,Meteorologica,2013-04-14 21:10:00,
2013-04-14 17:15:00,57.1,57.1,29.96,NNE,14,0.0,0.0,100,0.01,,,0.04,Meteorologica,2013-04-14 21:15:00,
2013-04-14 17:20:00,57.2,57.2,29.97,NNE,14,0.0,0.0,100,0.01,,,0.04,Meteorologica,2013-04-14 21:20:00,
2013-04-14 17:26:00,57.2,57.2,29.97,NNE,14,0.0,0.0,100,0.01,,,0.04,Meteorologica,2013-04-14 21:26:00,
2013-04-14 17:31:00,57.2,57.2,29.96,NNE,14,0.0,0.0,100,0.01,,,0.04,Meteorologica,2013-04-14 21:31:00,
2013-04-14 17:37:00,57.1,57.1,29.96,NNE,14,0.0,0.0,100,0.01,,,0.04,Meteorologica,2013-04-14 21:37:00,
2013-04-14 17:42:00,57.2,57.2,29.96,NNE,14,0.0,0.0,100,0.01,,,0.04,Meteorologica,2013-04-14 21:42:00,
2013-04-14 17:47:00,57.2,57.2,29.96,NNE,14,0.0,0.0,100,0.01,,,0.04,Meteorologica,2013-04-14 21:47:00,
2013-04-14 17:52:00,57.4,57.4,29.96,NNE,14,0.0,0.0,100,0.01,,,0.04,Meteorologica,2013-04-14 21:52:00,
2013-04-14 17:57:00,57.3,57.3,29.96,NNE,14,0.0,0.0,100,0.00,,,0.04,Meteorologica,2013-04-14 21:57:00,
2013-04-14 18:03:00,57.4,57.4,29.96,West,278,0.3,0.0,100,0.00,,,0.04,Meteorologica,2013-04-14 22:03:00,
2013-04-14 18:08:00,57.3,57.3,29.96,West,271,0.0,2.0,100,0.00,,,0.04,Meteorologica,2013-04-14 22:08:00,
2013-04-14 18:13:00,57.4,57.4,29.96,West,271,0.0,0.0,100,0.00,,,0.04,Meteorologica,2013-04-14 22:13:00,
2013-04-14 18:19:00,57.3,57.3,29.96,WSW,254,0.0,0.0,100,0.00,,,0.04,Meteorologica,2013-04-14 22:19:00,
2013-04-14 18:24:00,57.2,57.2,29.96,WSW,254,0.0,0.8,100,0.00,,,0.04,Meteorologica,2013-04-14 22:24:00,
2013-04-14 18:29:00,57.0,57.0,29.96,WSW,254,0.0,0.0,100,0.00,,,0.04,Meteorologica,2013-04-14 22:29:00,
2013-04-14 18:34:00,56.9,56.9,29.95,WSW,254,0.0,0.0,100,0.01,,,0.05,Meteorologica,2013-04-14 22:34:00,
2013-04-14 18:39:00,56.7,56.7,29.96,WSW,254,0.0,0.0,100,0.01,,,0.05,Meteorologica,2013-04-14 22:39:00,
2013-04-14 18:45:00,56.7,56.7,29.96,WSW,254,0.0,0.0,100,0.01,,,0.05,Meteorologica,2013-04-14 22:45:00,
2013-04-14 18:50:00,56.6,56.6,29.96,WSW,254,0.0,0.0,100,0.01,,,0.05,Meteorologica,2013-04-14 22:50:00,
2013-04-14 18:55:00,56.6,56.6,29.97,WSW,254,0.0,0.0,100,0.01,,,0.05,Meteorologica,2013-04-14 22:55:00,
2013-04-14 19:00:00,56.6,56.6,29.97,WSW,254,0.0,0.0,100,0.01,,,0.05,Meteorologica,2013-04-14 23:00:00,
2013-04-14 19:05:00,56.4,56.4,29.97,WSW,254,0.0,0.0,100,0.01,,,0.05,Meteorologica,2013-04-14 23:05:00,
2013-04-14 19:11:00,56.2,56.2,29.96,WSW,254,0.0,0.0,100,0.01,,,0.05,Meteorologica,2013-04-14 23:11:00,
2013-04-14 19:16:00,56.2,56.2,29.96,WSW,254,0.0,0.0,100,0.01,,,0.05,Meteorologica,2013-04-14 23:16:00,
2013-04-14 19:21:00,56.0,56.0,29.96,WSW,254,0.0,0.0,100,0.01,,,0.05,Meteorologica,2013-04-14 23:21:00,
2013-04-14 19:27:00,55.9,55.9,29.96,WSW,254,0.0,0.0,100,0.01,,,0.05,Meteorologica,2013-04-14 23:27:00,
2013-04-14 19:32:00,56.0,56.0,29.96,WSW,254,0.0,0.0,100,0.01,,,0.05,Meteorologica,2013-04-14 23:32:00,
2013-04-14 19:37:00,55.8,55.8,29.96,WSW,254,0.0,0.0,100,0.00,,,0.05,Meteorologica,2013-04-14 23:37:00,
2013-04-14 19:42:00,55.9,55.9,29.96,WSW,254,0.0,0.0,100,0.00,,,0.05,Meteorologica,2013-04-14 23:42:00,
2013-04-14 19:47:00,55.7,55.7,29.97,WSW,254,0.0,0.0,100,0.00,,,0.05,Meteorologica,2013-04-14 23:47:00,
2013-04-14 19:52:00,55.7,55.7,29.97,WSW,254,0.0,0.0,100,0.00,,,0.05,Meteorologica,2013-04-14 23:52:00,
2013-04-14 19:58:00,55.7,55.7,29.97,WSW,254,0.0,0.0,100,0.00,,,0.05,Meteorologica,2013-04-14 23:58:00,
2013-04-14 20:03:00,55.8,55.8,29.97,WSW,254,0.0,0.0,100,0.00,,,0.05,Meteorologica,2013-04-15 00:03:00,
2013-04-14 20:08:00,55.7,55.7,29.97,WSW,254,0.0,0.0,100,0.01,,,0.06,Meteorologica,2013-04-15 00:08:00,
2013-04-14 20:14:00,55.7,55.7,29.96,WSW,254,0.0,0.0,100,0.01,,,0.06,Meteorologica,2013-04-15 00:14:00,
2013-04-14 20:19:00,55.6,55.6,29.94,NE,52,1.2,0.0,100,0.01,,,0.06,Meteorologica,2013-04-15 00:19:00,
2013-04-14 20:24:00,55.6,55.6,29.95,NE,50,0.0,5.2,100,0.01,,,0.06,Meteorologica,2013-04-15 00:24:00,
2013-04-14 20:29:00,55.5,55.5,29.95,NE,50,0.0,0.0,100,0.01,,,0.06,Meteorologica,2013-04-15 00:29:00,
2013-04-14 20:35:00,55.6,55.6,29.96,NE,50,0.0,0.0,100,0.01,,,0.06,Meteorologica,2013-04-15 00:35:00,
2013-04-14 20:40:00,55.6,55.6,29.96,NE,50,0.0,0.0,100,0.01,,,0.06,Meteorologica,2013-04-15 00:40:00,
2013-04-14 20:46:00,55.6,55.6,29.95,NE,50,0.0,0.0,100,0.01,,,0.06,Meteorologica,2013-04-15 00:46:00,
2013-04-14 20:51:00,55.7,55.7,29.95,NE,50,0.0,0.0,100,0.02,,,0.07,Meteorologica,2013-04-15 00:51:00,
2013-04-14 20:56:00,55.5,55.5,29.95,NE,50,0.0,0.0,100,0.02,,,0.07,Meteorologica,2013-04-15 00:56:00,
2013-04-14 21:01:00,55.6,55.6,29.96,NE,50,0.0,0.0,100,0.02,,,0.07,Meteorologica,2013-04-15 01:01:00,
2013-04-14 21:07:00,55.6,55.6,29.96,NE,50,0.0,0.0,100,0.01,,,0.07,Meteorologica,2013-04-15 01:07:00,
2013-04-14 21:13:00,55.5,55.5,29.96,NE,50,0.0,0.0,100,0.01,,,0.07,Meteorologica,2013-04-15 01:13:00,
2013-04-14 21:18:00,55.4,55.4,29.97,NE,50,0.0,0.0,100,0.01,,,0.07,Meteorologica,2013-04-15 01:18:00,
2013-04-14 21:23:00,55.5,55.5,29.97,NE,50,0.0,0.0,100,0.01,,,0.07,Meteorologica,2013-04-15 01:23:00,
2013-04-14 21:28:00,55.4,55.4,29.97,NE,50,0.0,0.0,100,0.01,,,0.07,Meteorologica,2013-04-15 01:28:00,
2013-04-14 21:33:00,55.4,55.4,29.98,NE,50,0.0,0.0,100,0.01,,,0.07,Meteorologica,2013-04-15 01:33:00,
2013-04-14 21:39:00,55.4,55.4,29.98,NE,50,0.0,0.0,100,0.01,,,0.07,Meteorologica,2013-04-15 01:39:00,
2013-04-14 21:44:00,55.5,55.5,29.97,NE,50,0.0,0.0,100,0.01,,,0.07,Meteorologica,2013-04-15 01:44:00,
2013-04-14 21:49:00,55.5,55.5,29.97,NE,50,0.0,0.0,100,0.00,,,0.07,Meteorologica,2013-04-15 01:49:00,
2013-04-14 21:54:00,55.6,55.6,29.97,NE,50,0.0,0.0,100,0.00,,,0.07,Meteorologica,2013-04-15 01:54:00,
2013-04-14 21:59:00,55.5,55.5,29.98,NE,50,0.0,0.0,100,0.00,,,0.07,Meteorologica,2013-04-15 01:59:00,
2013-04-14 22:04:00,55.4,55.4,29.97,NE,50,0.0,0.0,100,0.00,,,0.07,Meteorologica,2013-04-15 02:04:00,
2013-04-14 22:09:00,55.5,55.5,29.97,NE,50,0.0,0.0,100,0.00,,,0.07,Meteorologica,2013-04-15 02:09:00,
2013-04-14 22:15:00,55.5,55.5,29.97,NE,50,0.0,0.0,100,0.00,,,0.07,Meteorologica,2013-04-15 02:15:00,
2013-04-14 22:20:00,55.3,55.3,29.97,NE,50,0.0,0.0,100,0.00,,,0.07,Meteorologica,2013-04-15 02:20:00,
2013-04-14 22:25:00,55.4,55.4,29.97,NE,50,0.0,0.0,100,0.00,,,0.07,Meteorologica,2013-04-15 02:25:00,
2013-04-14 22:30:00,55.3,55.3,29.96,NE,50,0.0,0.0,100,0.00,,,0.07,Meteorologica,2013-04-15 02:30:00,
2013-04-14 22:35:00,55.3,55.3,29.96,NE,50,0.0,0.0,100,0.00,,,0.07,Meteorologica,2013-04-15 02:35:00,
2013-04-14 22:40:00,55.3,55.3,29.96,NE,50,0.0,0.0,100,0.00,,,0.07,Meteorologica,2013-04-15 02:40:00,
2013-04-14 22:45:00,55.2,55.2,29.96,NE,50,0.0,0.0,100,0.00,,,0.07,Meteorologica,2013-04-15 02:45:00,
2013-04-14 22:50:00,55.1,55.1,29.96,NE,50,0.0,0.0,100,0.00,,,0.07,Meteorologica,2013-04-15 02:50:00,
2013-04-14 22:55:00,55.2,55.2,29.96,NE,50,0.0,0.0,100,0.00,,,0.07,Meteorologica,2013-04-15 02:55:00,
2013-04-14 23:00:00,55.2,55.2,29.96,NE,50,0.0,0.0,100,0.00,,,0.07,Meteorologica,2013-04-15 03:00:00,
2013-04-14 23:05:00,55.2,55.2,29.96,NE,50,0.0,0.0,100,0.00,,,0.07,Meteorologica,2013-04-15 03:05:00,
2013-04-14 23:11:00,55.0,55.0,29.96,NE,50,0.0,0.0,100,0.00,,,0.07,Meteorologica,2013-04-15 03:11:00,
2013-04-14 23:16:00,55.1,55.1,29.96,NE,50,0.0,0.0,100,0.00,,,0.07,Meteorologica,2013-04-15 03:16:00,
2013-04-14 23:22:00,55.0,55.0,29.96,NE,50,0.0,0.0,100,0.00,,,0.07,Meteorologica,2013-04-15 03:22:00,
2013-04-14 23:27:00,54.8,54.8,29.96,NE,50,0.0,0.0,100,0.00,,,0.07,Meteorologica,2013-04-15 03:27:00,
2013-04-14 23:32:00,54.9,54.9,29.96,NE,50,0.0,0.0,100,0.00,,,0.07,Meteorologica,2013-04-15 03:32:00,
2013-04-14 23:37:00,54.9,54.9,29.96,NE,50,0.0,0.0,100,0.00,,,0.07,Meteorologica,2013-04-15 03:37:00,
2013-04-14 23:42:00,54.8,54.8,29.96,NE,50,0.0,0.0,100,0.00,,,0.07,Meteorologica,2013-04-15 03:42:00,
2013-04-14 23:47:00,54.9,54.9,29.97,NE,50,0.0,0.0,100,0.00,,,0.07,Meteorologica,2013-04-15 03:47:00,
2013-04-14 23:52:00,54.8,54.8,29.96,NE,50,0.0,0.0,100,0.00,,,0.07,Meteorologica,2013-04-15 03:52:00,
2013-04-14 23:57:00,54.8,54.8,29.96,NE,50,0.0,0.0,100,0.00,,,0.07,Meteorologica,2013-04-15 03:57:00,